Weather in Vizovice

Czech Republic     49°20′25″N   17°59′33″E
temp.,
°C
wind,
m/s
gust,
m/s
humid.,
%
clouds,
%
prec.,
mm/h
press.,
hPa
HPBL,
m
19 april, mon
mon1923:00+3ne2291100 0.0 101947
02:00+3nne2288100 0.0 101844
05:00+3nne2292100 0.0 101844
08:00+5nne2480100 0.0 1017286
11:00+9ne2363100 0.0 10161223
14:00+9n2368100 0.1 1015949
17:00+6nne2589100 0.3 1016472
20:00+5n1396100 0.4 1016250
20 april, tue
tue2023:00+5nnw1198100 0.0 1016112
02:00+5n1298100 0.1 1015141
05:00+5n239757 0.1 1015156
08:00+6nne258731 0.1 1015361
11:00+10nne455614 0.1 10141457
14:00+10nne445199 0.2 10141566
17:00+10nne345498 0.0 10131464
20:00+7n116995 0.0 101415
21 april, wed
wed2123:00+4n11797 0.0 101512
02:00+3nne11856 0.0 101610
05:00+2nnw00905 0.0 101610
08:00+7wsw12695 0.0 1015219
11:00+12w345425 0.1 10151288
14:00+14w454541 0.4 10131958
17:00+12wsw355737 0.7 10131279
20:00+7wsw1290100 2.1 101413
22 april, thu
thu2223:00+6se009082 0.6 101510
02:00+5wsw119197 0.6 101610
05:00+3nw119299 0.0 101610
08:00+6w128253 0.0 1017225
11:00+8wnw4574100 0.1 1017993
14:00+6nw2381100 0.3 1017565
17:00+4nw1580100 0.1 1018419
20:00+3wnw117897 0.1 101810
23 april, fri
fri2323:000n119117 0.0 102012
02:00−1wnw119418 0.0 102110
05:00−2w11945 0.0 102210
08:00+3wnw13723 0.0 1023327
11:00+7wnw455077 0.1 10231757
14:00+9wnw5638100 0.1 10222297
17:00+9nw454080 0.0 10221932
20:00+3nne11785 0.1 102410